Time,TemperatureF,DewpointF,PressureIn,WindDirection,WindDirectionDegrees,WindSpeedMPH,WindSpeedGustMPH,Humidity,HourlyPrecipIn,Conditions,Clouds,dailyrainin,SoftwareType,DateUTC
2015-03-06 00:00:00,19.4,19.4,30.29,NE,34,11.5,-999.9,100,-99.99,,,-99.99,,2015-03-06 05:00:00,
2015-03-06 00:06:00,19.4,17.6,30.29,North,6,17.3,-999.9,93,-99.99,,,-99.99,,2015-03-06 05:06:00,
2015-03-06 00:12:00,19.4,17.6,30.29,North,6,17.3,-999.9,93,-99.99,,,-99.99,,2015-03-06 05:12:00,
2015-03-06 00:18:00,19.4,17.6,30.29,North,6,17.3,-999.9,93,-99.99,,,-99.99,,2015-03-06 05:18:00,
2015-03-06 00:24:00,17.6,15.8,30.30,NNE,12,10.4,-999.9,93,-99.99,,,-99.99,,2015-03-06 05:24:00,
2015-03-06 00:30:00,17.6,15.8,30.30,NNE,12,10.4,-999.9,93,-99.99,,,-99.99,,2015-03-06 05:30:00,
2015-03-06 00:36:00,17.6,15.8,30.31,North,356,11.5,-999.9,93,-99.99,,,-99.99,,2015-03-06 05:36:00,
2015-03-06 00:42:00,17.6,15.8,30.32,North,357,12.7,-999.9,93,-99.99,,,-99.99,,2015-03-06 05:42:00,
2015-03-06 00:48:00,17.6,15.8,30.32,North,357,12.7,-999.9,93,-99.99,,,-99.99,,2015-03-06 05:48:00,
2015-03-06 00:54:00,17.6,14.0,30.33,North,2,15.0,-999.9,86,-99.99,,,-99.99,,2015-03-06 05:54:00,
2015-03-06 01:00:00,17.6,14.0,30.33,North,2,15.0,-999.9,86,-99.99,,,-99.99,,2015-03-06 06:00:00,
2015-03-06 01:42:00,15.8,10.4,30.36,North,6,5.8,-999.9,79,-99.99,,,-99.99,,2015-03-06 06:42:00,
2015-03-06 01:48:00,15.8,10.4,30.36,North,6,5.8,-999.9,79,-99.99,,,-99.99,,2015-03-06 06:48:00,
2015-03-06 02:12:00,15.8,8.6,30.36,NNE,20,10.4,-999.9,73,-99.99,,,-99.99,,2015-03-06 07:12:00,
2015-03-06 02:18:00,15.8,8.6,30.36,NNE,20,10.4,-999.9,73,-99.99,,,-99.99,,2015-03-06 07:18:00,
2015-03-06 02:42:00,14.0,5.0,30.37,NNE,20,16.1,-999.9,67,-99.99,,,-99.99,,2015-03-06 07:42:00,
2015-03-06 02:48:00,14.0,5.0,30.37,NNE,20,16.1,-999.9,67,-99.99,,,-99.99,,2015-03-06 07:48:00,
2015-03-06 02:54:00,14.0,5.0,30.38,NNE,27,12.7,-999.9,67,-99.99,,,-99.99,,2015-03-06 07:54:00,
2015-03-06 03:00:00,14.0,5.0,30.38,NNE,27,12.7,-999.9,67,-99.99,,,-99.99,,2015-03-06 08:00:00,
2015-03-06 03:06:00,14.0,5.0,30.38,NNE,17,23.0,-999.9,67,-99.99,,,-99.99,,2015-03-06 08:06:00,
2015-03-06 03:42:00,14.0,5.0,30.40,North,11,8.1,-999.9,67,-99.99,,,-99.99,,2015-03-06 08:42:00,
2015-03-06 03:48:00,14.0,5.0,30.40,North,11,8.1,-999.9,67,-99.99,,,-99.99,,2015-03-06 08:48:00,
2015-03-06 03:54:00,14.0,5.0,30.40,NNE,18,11.5,-999.9,67,-99.99,,,-99.99,,2015-03-06 08:54:00,
2015-03-06 04:00:00,14.0,5.0,30.40,NNE,18,11.5,-999.9,67,-99.99,,,-99.99,,2015-03-06 09:00:00,
2015-03-06 04:06:00,14.0,5.0,30.40,NNE,29,5.8,-999.9,67,-99.99,,,-99.99,,2015-03-06 09:06:00,
2015-03-06 04:12:00,14.0,5.0,30.40,NNE,29,5.8,-999.9,67,-99.99,,,-99.99,,2015-03-06 09:12:00,
2015-03-06 04:18:00,14.0,5.0,30.40,NNE,29,5.8,-999.9,67,-99.99,,,-99.99,,2015-03-06 09:18:00,
2015-03-06 04:24:00,14.0,5.0,30.41,NNE,25,11.5,-999.9,67,-99.99,,,-99.99,,2015-03-06 09:24:00,
2015-03-06 04:30:00,14.0,5.0,30.41,NNE,25,11.5,-999.9,67,-99.99,,,-99.99,,2015-03-06 09:30:00,
2015-03-06 04:36:00,14.0,5.0,30.42,NNE,32,5.8,-999.9,67,-99.99,,,-99.99,,2015-03-06 09:36:00,
2015-03-06 04:42:00,14.0,5.0,30.43,NNE,27,9.2,-999.9,67,-99.99,,,-99.99,,2015-03-06 09:42:00,
2015-03-06 04:48:00,14.0,5.0,30.43,NNE,27,9.2,-999.9,67,-99.99,,,-99.99,,2015-03-06 09:48:00,
2015-03-06 04:54:00,14.0,5.0,30.44,NNE,22,11.5,-999.9,67,-99.99,,,-99.99,,2015-03-06 09:54:00,
2015-03-06 05:00:00,14.0,5.0,30.44,NNE,22,11.5,-999.9,67,-99.99,,,-99.99,,2015-03-06 10:00:00,
2015-03-06 05:12:00,14.0,5.0,30.45,NNE,13,10.4,-999.9,67,-99.99,,,-99.99,,2015-03-06 10:12:00,
2015-03-06 05:18:00,14.0,5.0,30.45,NNE,13,10.4,-999.9,67,-99.99,,,-99.99,,2015-03-06 10:18:00,
2015-03-06 05:24:00,14.0,5.0,30.45,NNE,13,10.4,-999.9,67,-99.99,,,-99.99,,2015-03-06 10:24:00,
2015-03-06 05:30:00,14.0,5.0,30.45,NNE,13,10.4,-999.9,67,-99.99,,,-99.99,,2015-03-06 10:30:00,
2015-03-06 05:36:00,14.0,5.0,30.45,NNE,13,10.4,-999.9,67,-99.99,,,-99.99,,2015-03-06 10:36:00,
2015-03-06 05:52:00,14.0,6.8,30.46,NE,37,10.4,-999.9,73,-99.99,,,-99.99,,2015-03-06 10:52:00,
2015-03-06 05:58:00,14.0,6.8,30.46,NE,37,10.4,-999.9,73,-99.99,,,-99.99,,2015-03-06 10:58:00,
2015-03-06 06:04:00,14.0,6.8,30.46,NNE,26,10.4,-999.9,73,-99.99,,,-99.99,,2015-03-06 11:04:00,
2015-03-06 06:10:00,14.0,6.8,30.46,NNE,26,10.4,-999.9,73,-99.99,,,-99.99,,2015-03-06 11:10:00,
2015-03-06 06:16:00,14.0,6.8,30.46,NNE,28,15.0,-999.9,73,-99.99,,,-99.99,,2015-03-06 11:16:00,
2015-03-06 06:22:00,14.0,6.8,30.47,NNE,27,8.1,-999.9,73,-99.99,,,-99.99,,2015-03-06 11:22:00,
2015-03-06 06:28:00,14.0,6.8,30.47,NNE,27,8.1,-999.9,73,-99.99,,,-99.99,,2015-03-06 11:28:00,
2015-03-06 06:34:00,14.0,6.8,30.47,NNE,13,6.9,-999.9,73,-99.99,,,-99.99,,2015-03-06 11:34:00,
2015-03-06 06:40:00,14.0,6.8,30.47,NNE,13,6.9,-999.9,73,-99.99,,,-99.99,,2015-03-06 11:40:00,
2015-03-06 06:46:00,14.0,6.8,30.47,North,8,6.9,-999.9,73,-99.99,,,-99.99,,2015-03-06 11:46:00,
2015-03-06 06:52:00,14.0,6.8,30.47,NNE,26,6.9,-999.9,73,-99.99,,,-99.99,,2015-03-06 11:52:00,
2015-03-06 06:58:00,14.0,6.8,30.47,NNE,26,6.9,-999.9,73,-99.99,,,-99.99,,2015-03-06 11:58:00,
2015-03-06 07:04:00,14.0,6.8,30.47,NNE,15,5.8,-999.9,73,-99.99,,,-99.99,,2015-03-06 12:04:00,
2015-03-06 07:10:00,14.0,6.8,30.47,NNE,15,5.8,-999.9,73,-99.99,,,-99.99,,2015-03-06 12:10:00,
2015-03-06 07:16:00,14.0,5.0,30.48,NNE,24,5.8,-999.9,67,-99.99,,,-99.99,,2015-03-06 12:16:00,
2015-03-06 07:22:00,15.8,6.8,30.48,NE,35,9.2,-999.9,68,-99.99,,,-99.99,,2015-03-06 12:22:00,
2015-03-06 07:28:00,15.8,6.8,30.48,NE,35,9.2,-999.9,68,-99.99,,,-99.99,,2015-03-06 12:28:00,
2015-03-06 07:34:00,15.8,6.8,30.48,NE,42,3.5,-999.9,68,-99.99,,,-99.99,,2015-03-06 12:34:00,
2015-03-06 07:40:00,15.8,6.8,30.48,NE,42,3.5,-999.9,68,-99.99,,,-99.99,,2015-03-06 12:40:00,
2015-03-06 07:52:00,15.8,6.8,30.48,NNE,33,5.8,-999.9,68,-99.99,,,-99.99,,2015-03-06 12:52:00,
2015-03-06 07:58:00,15.8,6.8,30.48,NNE,33,5.8,-999.9,68,-99.99,,,-99.99,,2015-03-06 12:58:00,
2015-03-06 08:04:00,15.8,5.0,30.48,NNE,29,9.2,-999.9,62,-99.99,,,-99.99,,2015-03-06 13:04:00,
2015-03-06 08:10:00,15.8,5.0,30.48,NNE,29,9.2,-999.9,62,-99.99,,,-99.99,,2015-03-06 13:10:00,
2015-03-06 08:16:00,15.8,5.0,30.48,ENE,58,8.1,-999.9,62,-99.99,,,-99.99,,2015-03-06 13:16:00,
2015-03-06 08:22:00,15.8,5.0,30.48,NNE,29,17.3,-999.9,62,-99.99,,,-99.99,,2015-03-06 13:22:00,
2015-03-06 08:28:00,15.8,5.0,30.48,NNE,29,17.3,-999.9,62,-99.99,,,-99.99,,2015-03-06 13:28:00,
2015-03-06 08:34:00,15.8,5.0,30.48,ENE,64,10.4,-999.9,62,-99.99,,,-99.99,,2015-03-06 13:34:00,
2015-03-06 08:40:00,15.8,5.0,30.48,ENE,64,10.4,-999.9,62,-99.99,,,-99.99,,2015-03-06 13:40:00,
2015-03-06 08:46:00,15.8,5.0,30.48,ENE,64,10.4,-999.9,62,-99.99,,,-99.99,,2015-03-06 13:46:00,
2015-03-06 08:52:00,15.8,5.0,30.48,ENE,64,10.4,-999.9,62,-99.99,,,-99.99,,2015-03-06 13:52:00,
2015-03-06 08:58:00,15.8,5.0,30.48,ENE,64,10.4,-999.9,62,-99.99,,,-99.99,,2015-03-06 13:58:00,
2015-03-06 09:04:00,15.8,5.0,30.48,ENE,64,10.4,-999.9,62,-99.99,,,-99.99,,2015-03-06 14:04:00,
2015-03-06 09:10:00,15.8,5.0,30.48,ENE,64,10.4,-999.9,62,-99.99,,,-99.99,,2015-03-06 14:10:00,
2015-03-06 09:16:00,17.6,5.0,30.47,ENE,63,12.7,-999.9,58,-99.99,,,-99.99,,2015-03-06 14:16:00,
2015-03-06 09:22:00,17.6,5.0,30.46,NNE,19,11.5,-999.9,58,-99.99,,,-99.99,,2015-03-06 14:22:00,
2015-03-06 09:28:00,17.6,5.0,30.46,NNE,19,11.5,-999.9,58,-99.99,,,-99.99,,2015-03-06 14:28:00,
2015-03-06 09:34:00,19.4,6.8,30.46,NE,34,11.5,-999.9,58,-99.99,,,-99.99,,2015-03-06 14:34:00,
2015-03-06 09:40:00,19.4,6.8,30.46,NE,34,11.5,-999.9,58,-99.99,,,-99.99,,2015-03-06 14:40:00,
2015-03-06 09:46:00,19.4,5.0,30.46,NNE,19,8.1,-999.9,54,-99.99,,,-99.99,,2015-03-06 14:46:00,
2015-03-06 09:52:00,19.4,5.0,30.46,North,356,11.5,-999.9,54,-99.99,,,-99.99,,2015-03-06 14:52:00,
2015-03-06 09:58:00,19.4,5.0,30.46,North,356,11.5,-999.9,54,-99.99,,,-99.99,,2015-03-06 14:58:00,
2015-03-06 10:04:00,19.4,5.0,30.46,North,356,11.5,-999.9,54,-99.99,,,-99.99,,2015-03-06 15:04:00,
2015-03-06 10:10:00,19.4,5.0,30.46,North,356,11.5,-999.9,54,-99.99,,,-99.99,,2015-03-06 15:10:00,
2015-03-06 10:16:00,19.4,3.2,30.46,NNE,25,6.9,-999.9,49,-99.99,,,-99.99,,2015-03-06 15:16:00,
2015-03-06 10:22:00,19.4,3.2,30.46,NNE,19,6.9,-999.9,49,-99.99,,,-99.99,,2015-03-06 15:22:00,
2015-03-06 10:28:00,19.4,3.2,30.46,NNE,19,6.9,-999.9,49,-99.99,,,-99.99,,2015-03-06 15:28:00,
2015-03-06 10:34:00,19.4,3.2,30.46,NNE,19,6.9,-999.9,49,-99.99,,,-99.99,,2015-03-06 15:34:00,
2015-03-06 10:40:00,19.4,3.2,30.46,NNE,19,6.9,-999.9,49,-99.99,,,-99.99,,2015-03-06 15:40:00,
2015-03-06 10:46:00,19.4,3.2,30.46,NNE,19,6.9,-999.9,49,-99.99,,,-99.99,,2015-03-06 15:46:00,
2015-03-06 10:52:00,21.2,3.2,30.45,NE,40,13.8,-999.9,46,-99.99,,,-99.99,,2015-03-06 15:52:00,
2015-03-06 10:58:00,21.2,3.2,30.45,NE,40,13.8,-999.9,46,-99.99,,,-99.99,,2015-03-06 15:58:00,
2015-03-06 11:04:00,21.2,5.0,30.45,North,2,5.8,-999.9,50,-99.99,,,-99.99,,2015-03-06 16:04:00,
2015-03-06 11:10:00,21.2,5.0,30.45,North,2,5.8,-999.9,50,-99.99,,,-99.99,,2015-03-06 16:10:00,
2015-03-06 11:16:00,21.2,1.4,30.45,NE,45,8.1,-999.9,42,-99.99,,,-99.99,,2015-03-06 16:16:00,
2015-03-06 11:22:00,21.2,3.2,30.45,NE,44,1.2,-999.9,46,-99.99,,,-99.99,,2015-03-06 16:22:00,
2015-03-06 11:28:00,21.2,3.2,30.45,NE,44,1.2,-999.9,46,-99.99,,,-99.99,,2015-03-06 16:28:00,
2015-03-06 11:34:00,21.2,3.2,30.45,NE,44,1.2,-999.9,46,-99.99,,,-99.99,,2015-03-06 16:34:00,
2015-03-06 11:40:00,21.2,3.2,30.45,NE,44,1.2,-999.9,46,-99.99,,,-99.99,,2015-03-06 16:40:00,
2015-03-06 11:46:00,23.0,1.4,30.43,NE,44,6.9,-999.9,39,-99.99,,,-99.99,,2015-03-06 16:46:00,
2015-03-06 11:52:00,23.0,1.4,30.43,NE,44,6.9,-999.9,39,-99.99,,,-99.99,,2015-03-06 16:52:00,